カタログに戻る

SL-12 R/B

AUX MOTOR

運用中HEO
NORAD 15054·ROCKET BODY·🇷🇺 Russia

打ち上げ May 19, 1984 から Baikonur Cosmodrome

Loading…

次のパス (今後24時間)

TLE

最新Source: Space-Track

元期: Sep 14, 2026, 09:32 UTC

1 15054U 84047H   26257.39743147  .00004042  00000-0  54209-3 0  9991
2 15054  52.0188  31.2951 4670383 262.7107  43.9464  6.19095598698845

AllMySatでSL-12 R/Bをリアルタイム追跡

Download on the App Store